Regional Weather Roundup
Issued by NWS Albany, NY

Home | Current Version | Previous Version | Text Only | Print | Product List | Glossary On
Versions: 1 2 3 4 5 6 7 8 9 10 11 12 13 14 15 16 17 18 19 20 21 22 23 24 25 26 27 28 29 30 31 32 33 34 35 36 37 38 39 40 41 42 43 44 45 46 47 48 49 50
524
ASUS41 KALY 092110
RWRALY

NEW YORK STATE HOURLY WEATHER ROUNDUP
NATIONAL WEATHER SERVICE ALBANY NY
400 PM EST TUE FEB 09 2016

NOTE: "FAIR" INDICATES FEW OR NO CLOUDS BELOW 12,000 FEET WITH NO
SIGNIFICANT WEATHER AND/OR NO OBSTRUCTIONS TO VISIBILITY.

NYZ032-033-038>043-046>054-057>066-NYZ062>081-092200-
EAST


CITY           SKY/WX    TMP DP  RH WIND       PRES   REMARKS
ALBANY         FLURRIES  30  19  63 CALM      29.56R
GLENS FALLS    CLOUDY    27  18  69 CALM      29.56S
POUGHKEEPSIE   CLOUDY    33  20  58 CALM      29.57R
NEWBURGH       PTSUNNY   32  23  69 VRB5      29.56R WCI  27
MONTGOMERY     CLOUDY    32  23  69 SW6       29.55R WCI  26
WHITE PLAINS   PTSUNNY   31  22  69 CALM      29.56R
ISLIP          CLOUDY    32  22  66 N5        29.56S WCI  27
NEW YORK CITY  CLOUDY    34  22  61 E7        29.57S WCI  28
CENTRAL PARK   CLOUDY    36  22  56 E3        29.59S
$$

NYZ005>009-017-018-044>046-055-056-092200-
CENTRAL


CITY           SKY/WX    TMP DP  RH WIND       PRES   REMARKS
FULTON         CLOUDY    33  27  78 SE5       29.51R WCI  29
SYRACUSE       LGT SNOW  29  26  89 NE6       29.51R FOG     WCI  23
ROME           FLURRIES  28  23  81 E6        29.53R WCI  22
ELMIRA         SNOW      34  33  96 NW6       29.48R VSB 1/2 WCI  29
BINGHAMTON     CLOUDY    32  26  78 S5        29.45S WCI  27
MONTICELLO     CLOUDY    30  23  74 CALM      29.51R
$$

NYZ026>034-041>043-092200-
NORTH


CITY           SKY/WX    TMP DP  RH WIND       PRES   REMARKS
WATERTOWN      CLOUDY    28  23  81 NE12      29.52R WCI  18
FORT DRUM      NOT AVBL
MASSENA        CLOUDY    23  16  74 NE12      29.59R WCI  12
SARANAC LAKE   LGT SNOW  25  20  81 NE7       29.44R WCI  17
PLATTSBURGH    CLOUDY    26  20  77 E5        29.57F WCI  20
$$

NYZ001>004-010>016-019>021-092200-
WEST


CITY           SKY/WX    TMP DP  RH WIND       PRES   REMARKS
NIAGARA FALLS  CLOUDY    36  28  73 SW18      29.49R WCI  26
BUFFALO        PTSUNNY   34  28  79 W18G24    29.50R WCI  23
DUNKIRK        CLOUDY    33  27  78 SW12      29.53R WCI  24
JAMESTOWN      CLOUDY    30  19  64 W10       29.47S WCI  21
WELLSVILLE     CLOUDY    34  23  64 W14       29.44R WCI  25
ROCHESTER      CLOUDY    39  28  64 W13G20    29.49R WCI  31
PENN YAN       CLOUDY    36  31  82 SE3       29.47R
$$

             KEY
       WCI = WIND CHILL INDEX
       VSB = VISIBILITY
       HX  = HEAT INDEX
$$




USA.gov is the U.S. government's official web portal to all federal, state and local government web resources and services.